Probability
3 5 9 14 14 8 2 0 0 0 0 0 0 0 1 7 16 25 34 54 75 78 69 64 62 58 53 46 39 30 18 8 2 0 0 0 0 0 0 0 0 0 0 0 0 0 0 0 0
4 5 9 12 11 5 1 0 0 0 0 0 0 1 4 10 19 28 41 61 75 74 65 62 61 58 53 47 41 33 21 10 3 1 1 0 0 0 0 0 0 0 0 0 0 0 0 0 0
5 6 8 10 7 2 0 0 0 0 0 0 1 5 12 19 26 35 47 62 70 66 60 60 61 57 52 47 42 36 25 15 7 3 2 1 0 0 0 0 0 0 0 0 0 0 0 0 0
6 5 7 6 3 0 0 0 0 0 0 0 3 11 21 31 37 42 48 56 61 61 58 60 62 58 50 44 41 36 29 20 12 6 3 1 0 0 0 0 0 0 0 0 0 0 0 0 0
4 3 3 2 1 0 0 0 0 0 0 1 6 16 27 37 43 46 50 52 55 57 57 59 61 58 49 42 39 36 31 24 16 9 5 3 2 1 1 1 0 0 0 0 0 0 0 0 0
2 1 0 0 0 0 0 0 0 0 0 1 7 18 27 33 40 46 48 51 51 54 56 58 60 57 48 41 39 36 31 26 19 12 8 7 6 4 3 2 1 0 0 0 0 0 0 0 0
1 0 0 0 0 0 0 0 0 0 0 2 9 18 25 29 37 44 47 50 52 53 55 55 54 51 44 40 39 35 29 24 20 14 9 8 6 5 4 2 1 0 0 0 0 0 0 0 0
0 0 0 0 0 0 0 0 0 1 3 6 11 20 26 30 37 43 46 50 52 53 51 50 47 42 35 33 33 31 25 19 15 12 7 5 5 4 3 2 1 0 0 0 0 0 0 0 0
0 0 0 0 0 0 0 0 1 4 6 8 13 20 26 30 36 42 44 46 49 48 45 42 38 33 27 25 24 24 19 13 10 9 5 3 3 2 1 1 0 0 0 0 0 0 0 0 0
0 0 0 0 0 0 0 0 2 5 7 9 12 16 20 24 31 38 39 38 40 41 39 33 29 26 22 20 19 18 15 11 8 6 4 3 3 1 0 0 0 0 0 0 0 0 0 0 0
0 0 0 0 0 0 0 0 2 5 7 7 8 10 12 18 26 33 33 30 31 34 33 26 22 21 20 19 18 15 13 11 8 5 4 3 3 1 0 0 0 0 0 0 0 0 0 0 0
0 0 0 0 0 0 0 0 2 4 6 6 6 6 8 14 23 27 27 25 25 27 25 20 17 17 18 20 18 14 11 10 8 7 6 4 3 2 0 0 0 0 0 0 0 0 0 0 0
0 0 0 0 0 0 0 0 0 2 5 8 7 5 6 10 17 22 22 20 19 17 16 15 14 14 16 19 18 14 11 10 9 9 7 4 3 1 0 0 0 0 0 0 0 0 0 0 0
0 0 0 0 0 0 0 0 0 1 4 7 7 5 5 7 11 16 17 15 13 11 9 9 9 10 13 16 17 15 13 11 10 9 6 4 3 1 0 0 0 0 0 0 0 0 0 0 0
0 0 0 0 0 0 0 0 0 1 3 4 5 5 5 5 7 10 11 10 9 7 4 2 3 6 9 12 14 15 14 12 9 6 4 3 3 2 1 0 0 0 0 0 0 0 0 0 0
0 0 0 0 0 0 0 0 0 2 3 3 4 3 2 2 4 6 8 8 7 6 3 1 1 2 4 7 11 13 12 9 7 4 2 2 2 3 2 1 0 0 0 0 0 0 0 0 0
0 0 0 0 0 0 0 0 0 1 2 3 3 2 0 1 2 5 8 8 7 6 4 3 2 2 3 5 7 8 7 5 4 2 1 0 1 3 3 1 1 0 0 0 0 0 0 0 0
0 0 0 0 0 0 0 0 0 0 1 1 1 1 0 0 1 4 7 9 9 7 6 5 4 4 4 4 5 4 2 1 2 1 0 0 2 4 3 3 2 2 1 1 2 1 1 1 0
0 0 0 0 0 0 0 0 0 0 0 0 0 0 0 0 1 2 4 7 9 7 6 6 6 7 6 6 5 3 2 1 1 1 2 2 4 5 4 4 4 4 4 4 3 3 2 2 1
0 0 0 0 0 0 0 0 0 0 0 0 0 0 0 0 1 2 2 4 5 5 4 5 6 7 8 7 6 5 4 3 3 3 4 5 6 6 5 4 4 6 7 6 4 4 4 4 4
0 0 0 0 0 0 0 0 0 0 0 0 0 0 0 0 1 2 3 3 3 4 4 4 5 6 7 7 7 5 4 5 5 6 7 7 8 8 6 4 5 8 9 7 5 5 6 6 6
0 0 0 0 0 0 0 0 0 0 0 0 0 0 0 0 2 3 3 3 4 4 4 3 3 4 6 7 5 2 2 4 6 6 7 8 9 8 5 4 4 6 8 7 7 7 7 7 7
0 0 0 0 0 0 0 0 0 0 0 0 0 0 0 0 1 2 2 3 4 3 4 3 2 2 4 5 3 1 2 4 4 5 6 7 7 5 3 2 2 3 4 5 7 8 8 7 7
0 0 0 0 0 0 0 0 0 0 0 0 0 0 0 0 0 1 1 2 2 2 3 4 2 1 2 3 2 2 2 2 2 2 4 6 6 4 2 0 0 0 1 2 5 7 7 7 7
0 0 0 0 0 0 0 0 0 0 0 0 0 0 0 0 0 0 0 1 1 1 2 3 2 1 1 1 2 2 2 2 1 2 2 5 7 7 4 2 1 1 2 4 5 7 8 8 7
0 0 0 0 0 0 0 0 0 0 0 0 0 0 0 0 0 0 0 0 0 0 1 2 2 2 2 2 2 3 3 2 3 3 3 4 7 7 5 3 3 3 4 5 6 6 7 7 7
0 0 0 0 0 0 0 0 0 0 0 0 0 0 0 0 0 0 0 0 0 0 0 1 1 3 3 3 3 4 4 2 2 3 3 3 5 5 4 3 2 2 3 4 5 5 4 4 5
0 0 0 0 0 0 0 0 0 0 0 0 0 0 0 0 0 0 0 0 0 0 0 0 1 2 2 2 2 3 2 1 1 2 2 2 2 4 4 3 1 1 2 3 3 2 2 2 2
0 0 0 0 0 0 0 0 0 0 0 0 0 0 0 0 0 0 0 0 0 0 0 0 0 1 1 1 1 1 1 0 0 1 1 0 1 3 4 3 3 3 3 3 1 1 1 0 1
0 0 0 0 0 0 0 0 0 0 0 0 0 0 0 0 0 0 0 0 0 0 0 0 0 0 0 0 0 0 0 0 0 0 0 0 0 2 3 4 3 4 4 3 1 0 0 0 0
Wind_Speed
11 9 5 2 4 8 18 16 14 13 14 11 7 7 7 4 1 4 4 8 15 18 19 19 19 18 18 18 17 17 17 17 16 17 17 17 17 16 16 16 16 16 15 16 16 16 16 16 15
9 7 3 3 8 13 15 16 18 15 12 8 7 6 5 2 4 6 4 9 15 17 17 17 18 18 18 18 17 17 17 17 17 17 17 17 17 16 16 16 16 15 15 15 15 15 15 15 14
10 8 4 5 11 16 14 10 12 10 9 8 6 5 4 1 2 4 7 10 13 15 15 16 18 18 18 17 18 18 17 17 17 17 16 17 17 17 16 16 16 15 15 15 15 15 14 14 13
4 3 4 8 17 17 15 11 9 9 8 7 5 3 2 3 2 4 9 11 12 14 14 16 17 18 17 17 17 18 18 17 17 16 16 16 17 17 16 16 16 15 15 15 15 14 14 13 12
3 3 8 11 18 17 15 13 11 9 8 7 5 3 4 3 4 5 7 10 10 12 13 16 17 17 17 17 16 17 17 17 17 17 17 17 17 17 17 16 16 15 15 15 14 14 13 12 10
2 3 8 12 15 16 14 11 11 10 9 7 5 4 3 2 3 3 4 8 9 10 13 14 16 16 16 16 16 16 16 16 16 16 17 17 17 17 17 16 15 15 15 14 14 13 12 11 9
3 4 10 13 13 13 12 9 9 8 9 7 4 4 4 1 1 2 2 5 8 10 11 12 12 13 14 14 14 14 15 15 15 15 15 15 16 17 17 16 15 15 14 14 13 12 12 10 8
2 4 9 11 13 13 9 9 7 7 8 6 5 5 4 2 1 1 1 3 7 9 11 11 11 11 10 10 13 13 13 13 14 14 14 14 14 15 15 14 13 13 13 13 12 12 11 9 7
2 5 10 10 10 9 7 7 6 5 7 7 6 5 4 4 2 1 1 2 5 8 9 10 11 11 10 10 12 11 12 12 13 12 14 13 9 10 10 12 12 12 12 12 12 11 10 8 5
5 7 11 9 8 8 7 8 7 6 7 8 8 5 3 5 5 4 4 4 6 7 8 9 10 10 10 10 9 8 8 9 9 9 10 8 8 7 9 12 12 12 11 11 11 10 9 6 3
6 8 10 10 9 9 8 7 8 8 9 8 7 5 4 5 6 6 5 4 6 7 7 8 9 9 9 7 8 5 5 6 8 11 10 7 7 7 7 6 7 7 8 6 7 6 4 4 4
8 11 11 10 9 8 8 6 9 10 10 8 7 7 6 5 6 6 6 4 3 5 6 7 7 7 8 8 7 6 5 6 6 9 10 7 5 6 7 5 6 5 4 5 5 4 5 4 5
9 9 10 10 9 8 8 8 9 12 10 9 7 7 7 7 6 4 4 5 5 4 3 5 6 7 6 6 6 7 6 6 7 7 8 8 6 7 7 6 6 6 5 5 5 4 5 4 4
7 9 10 10 8 8 9 10 10 11 9 8 7 6 7 6 6 5 4 4 4 5 3 1 2 5 5 5 5 6 6 6 6 6 7 8 6 6 6 6 6 5 5 5 4 4 4 3 2
7 9 10 9 9 7 7 10 11 10 8 8 7 7 6 5 5 6 4 4 4 5 5 4 1 2 4 5 6 5 5 6 6 5 8 8 7 7 6 6 5 5 5 5 4 3 3 2 2
6 6 7 7 7 6 5 9 7 5 6 7 7 7 6 5 6 5 3 4 4 5 5 5 4 3 4 3 5 4 5 6 5 5 6 8 8 8 6 5 5 5 5 4 3 3 3 2 2
4 5 6 5 3 3 5 8 8 5 5 6 6 6 6 4 4 4 2 2 4 5 6 6 6 4 5 4 4 5 5 6 5 4 5 6 8 8 6 5 5 6 4 4 4 3 3 3 3
4 5 5 4 3 5 6 8 8 6 5 6 5 3 3 3 3 3 3 3 3 4 5 6 7 6 5 4 3 3 4 5 5 5 5 7 7 8 6 5 6 6 5 4 4 4 3 3 3
7 6 6 6 5 5 6 8 8 6 4 4 3 3 3 3 3 2 3 3 3 3 4 6 6 6 5 4 4 4 5 5 5 5 6 7 7 8 7 6 6 5 5 5 5 4 4 3 2
4 4 5 5 4 4 6 7 7 4 3 2 2 2 2 3 3 2 3 3 3 4 4 5 6 6 6 5 4 4 4 4 4 4 6 6 7 8 7 7 6 6 5 6 5 5 3 3 3
3 3 4 5 7 5 5 5 3 2 2 2 2 2 2 3 4 4 4 4 3 4 4 4 6 6 6 6 4 3 2 3 4 5 5 5 7 8 7 8 7 6 6 6 6 6 5 4 3
4 3 4 5 4 3 3 2 2 0 1 1 1 2 1 1 2 3 4 4 4 4 3 4 6 6 6 6 5 6 4 4 5 4 4 5 6 7 8 8 7 7 5 6 6 5 4 5 4
3 5 6 6 4 3 3 1 2 3 4 4 3 3 3 2 1 3 3 3 4 3 3 4 5 5 5 5 6 6 5 4 4 4 5 6 5 7 7 8 7 7 5 6 7 6 6 5 5
4 5 6 5 2 2 2 1 2 4 5 6 6 5 4 3 4 3 2 2 3 3 3 3 4 5 5 5 6 6 7 7 7 6 7 6 5 5 7 7 7 7 6 6 6 6 7 5 5
3 3 2 1 1 1 1 2 2 5 7 6 6 5 5 4 4 3 2 3 2 2 3 2 3 5 5 5 5 6 7 7 8 8 7 7 5 5 8 7 6 6 6 6 5 6 6 6 6
3 2 2 2 2 1 2 2 2 5 7 7 8 7 7 6 5 4 3 2 2 1 2 1 2 4 4 5 5 5 5 5 5 6 5 6 6 6 8 8 7 7 7 6 6 4 5 5 6
3 2 2 2 3 1 0 2 3 7 8 9 10 9 9 8 7 6 5 5 3 2 1 1 1 2 3 3 3 4 5 5 5 5 4 4 5 5 8 8 7 7 7 7 6 5 5 5 5
2 3 2 2 2 1 0 2 3 6 8 8 9 9 9 9 8 6 6 5 5 4 2 0 0 1 1 1 1 2 4 4 4 4 4 4 5 6 7 7 8 8 7 7 6 5 5 5 5
2 2 2 2 1 1 1 2 4 4 6 7 8 8 9 8 8 7 6 6 5 5 4 3 2 2 1 0 1 1 2 3 3 3 3 3 3 5 7 7 8 8 8 8 7 7 7 7 6
2 2 2 1 3 1 0 1 3 4 5 6 7 8 8 8 8 7 7 7 7 6 6 5 4 3 3 2 1 1 0 1 2 2 3 3 3 4 6 7 7 7 8 8 8 8 8 8 7
Wind_Direction
295 274 257 242 227 227 236 235 243 246 244 247 261 266 261 257 274 118 139 134 128 137 145 152 152 154 154 153 152 151 151 151 151 148 146 143 140 137 134 132 127 123 118 114 109 104 101 99 97
291 280 253 227 225 226 233 229 238 246 253 264 272 277 271 275 68 105 124 122 130 137 144 153 151 153 154 154 153 154 154 154 153 151 148 146 144 141 137 132 129 124 119 114 111 106 103 101 100
272 265 239 224 228 228 233 228 234 248 263 268 265 275 274 263 91 110 122 125 131 138 145 148 151 154 155 155 154 155 154 154 154 152 150 149 147 144 138 132 127 122 118 114 114 110 107 105 104
262 231 237 238 237 237 249 262 268 263 268 269 270 286 297 23 43 106 125 127 135 140 144 146 152 154 155 155 155 156 156 155 155 153 152 151 148 144 138 129 124 121 119 118 116 113 110 108 108
250 240 232 238 244 248 253 263 275 274 263 265 266 265 290 353 72 104 127 130 139 141 141 150 152 154 156 157 156 156 156 156 155 155 155 153 149 144 136 130 126 125 124 122 120 118 115 113 113
242 235 236 238 243 248 249 256 271 275 267 264 260 257 266 1 44 109 132 139 141 137 141 151 153 153 156 158 158 157 156 156 156 156 156 152 147 141 136 132 131 130 129 126 124 122 119 117 115
243 247 251 251 252 252 254 265 265 273 261 259 265 259 248 290 23 77 137 146 142 139 142 150 156 154 155 158 158 158 156 156 155 155 152 147 144 140 138 136 136 135 133 130 127 125 122 120 117
249 267 259 252 251 254 264 271 274 281 277 273 252 226 222 212 300 22 58 137 144 143 146 153 157 158 158 156 156 155 154 155 154 149 142 139 139 139 137 137 138 136 134 132 130 128 126 124 125
232 243 252 254 255 266 279 283 287 300 290 282 269 265 237 204 184 113 65 126 152 152 151 159 163 161 159 161 159 155 153 152 149 142 138 140 141 139 140 138 136 135 136 136 135 134 132 130 141
202 239 251 264 276 285 289 292 298 301 290 282 275 272 212 207 195 183 187 179 173 169 164 162 165 166 164 161 157 162 161 158 158 152 152 156 151 149 142 134 136 136 136 137 141 143 145 149 171
216 244 264 272 278 287 287 291 297 272 263 262 264 266 239 211 205 194 195 199 188 176 171 160 169 169 166 156 159 164 163 167 167 160 167 164 149 139 131 137 134 134 140 142 146 154 182 190 179
242 254 262 268 273 275 280 283 281 268 263 274 274 266 249 228 213 204 195 196 197 189 179 168 161 171 169 160 162 161 161 170 166 166 170 160 148 144 147 149 153 157 162 157 166 191 201 189 177
254 264 269 270 275 265 264 263 271 270 271 270 263 258 240 237 223 216 211 199 190 183 185 190 169 167 172 164 166 164 161 163 163 164 167 156 150 153 154 158 160 169 165 161 182 200 188 180 183
273 278 278 276 271 266 258 262 260 261 263 257 250 251 243 234 226 219 212 214 199 185 173 201 208 172 168 168 169 165 162 160 158 163 166 159 156 159 159 158 163 170 161 167 184 189 172 173 171
270 273 272 260 251 249 257 259 246 252 245 244 246 248 232 232 239 225 216 216 197 183 173 180 221 188 166 171 169 166 157 157 155 163 168 166 162 161 159 158 163 166 162 169 177 176 157 158 145
261 259 260 250 235 235 232 258 265 248 240 239 238 240 225 223 229 224 224 213 189 170 168 181 187 196 175 174 167 161 160 155 153 163 166 169 163 160 157 156 163 165 160 160 165 156 148 143 144
238 253 262 276 247 253 238 266 276 258 250 251 244 232 220 214 212 206 216 211 186 179 174 178 169 179 190 178 169 164 161 162 158 165 170 171 165 162 158 159 163 160 153 156 162 155 154 157 169
284 289 293 291 283 267 254 266 278 269 260 255 253 233 224 208 218 208 194 183 192 194 182 179 166 176 182 165 156 155 169 167 161 167 177 171 168 165 160 159 165 158 152 156 156 159 160 161 164
285 290 294 295 300 294 276 272 279 276 266 260 261 236 216 209 214 212 189 184 191 190 189 187 172 179 172 166 162 162 183 174 166 172 176 170 169 168 163 163 164 158 158 163 164 163 165 168 150
297 308 299 298 312 307 287 278 273 268 255 244 242 250 222 208 198 202 194 189 183 196 190 185 178 179 172 175 167 165 175 174 167 170 174 175 173 170 166 163 165 163 162 169 173 164 161 172 162
306 307 307 310 315 280 269 283 256 224 228 235 240 253 244 219 192 194 186 176 169 190 192 191 184 186 180 174 159 150 163 161 169 176 178 181 179 173 168 167 166 168 168 173 176 170 170 174 179
300 313 303 301 311 301 310 309 338 178 175 270 326 344 314 250 188 177 173 168 172 181 185 197 197 190 189 175 167 165 179 189 185 180 179 182 190 179 171 168 168 172 173 176 180 173 171 171 181
297 306 291 279 283 288 264 253 312 25 27 17 21 5 353 360 99 147 159 166 164 158 173 192 190 187 191 178 172 176 189 199 181 176 176 181 191 182 173 172 170 173 176 181 181 175 177 183 185
305 297 279 256 250 277 265 190 357 17 16 17 20 13 8 25 56 76 99 128 135 145 159 178 172 187 186 178 182 187 195 196 182 181 183 182 187 184 180 178 177 175 177 184 184 181 181 187 190
338 333 330 309 206 248 37 77 29 22 28 23 22 19 19 36 46 62 68 91 111 143 148 158 170 188 183 179 189 193 199 203 195 190 190 186 187 190 185 182 182 178 181 184 179 182 182 182 185
322 329 349 326 331 353 17 59 54 37 34 28 27 33 28 27 34 46 48 69 87 103 121 132 206 200 186 185 193 198 199 206 205 203 199 194 193 193 184 182 183 183 182 182 178 179 181 178 184
326 353 312 293 291 303 140 126 84 32 37 32 26 27 28 23 25 28 29 31 24 22 94 152 216 196 183 188 196 198 197 200 204 200 202 200 192 188 182 181 183 183 181 179 175 181 182 178 179
316 319 323 332 336 343 35 70 24 10 20 28 23 19 18 17 21 22 25 24 16 9 4 43 235 218 186 191 196 208 200 198 191 193 202 203 191 186 179 181 182 180 177 176 176 173 174 172 175
352 344 322 302 309 349 1 30 39 39 31 27 22 16 14 14 14 16 19 21 18 15 11 20 10 360 26 230 195 200 193 184 174 183 194 199 196 188 181 183 183 180 178 176 177 177 172 172 173
338 338 341 344 330 329 93 329 47 54 49 35 26 18 16 16 14 14 20 19 16 14 12 17 11 12 6 358 354 323 349 180 178 186 194 189 189 190 188 180 182 182 179 177 180 178 176 175 179